Campo, CA

4:29 PM PDT on October 22, 2019 (GMT -0700)
Campo

Weather History for KCZZ - August, 2019

Change the Weather History Date:

Tuesday, August 20, 2019

  Actual Average Record
Temperature  
Mean Temperature 76 °F 74 °F  
Max Temperature 99 °F 95 °F 105 °F (1982)
Min Temperature 52 °F 53 °F 39 °F (1989)
Degree Days  
Heating Degree Days 0 0  
Month to date heating degree days 0 0  
Since 1 June heating degree days 42 63  
Since 1 July heating degree days 6 7  
Cooling Degree Days 11 9  
Month to date cooling degree days 193 180  
Year to date cooling degree days 521 552  
Since 1 June cooling degree days 519 522  
Growing Degree Days 25 (Base 50)    
Moisture  
Dew Point 42 °F    
Average Humidity 38    
Maximum Humidity 64    
Minimum Humidity 11    
Precipitation  
Precipitation 0.00 in 0.02 in 0.34 in (1988)
Month to date precipitation 0.00 0.46  
Year to date precipitation 12.82 10.93  
Sea Level Pressure  
Sea Level Pressure 29.85 in    
Wind  
Wind Speed 7 mph (NNE)    
Max Wind Speed 14 mph    
Max Gust Speed 22 mph    
T = Trace of Precipitation, MM = Missing Value Source: NWS Daily Summary

Daily Weather History Graph

Daily Weather History Graph

Search for Another Location

Airport or City:

Astronomy

Aug. 20, 2019 Rise Set
Actual Time 6:12 AM PDT 7:25 PM PDT
Civil Twilight 5:47 AM PDT 7:50 PM PDT
Nautical Twilight 5:16 AM PDT 8:21 PM PDT
Astronomical Twilight 4:44 AM PDT 8:52 PM PDT
Moon 10:31 PM PDT (8/20) 10:40 AM PDT (8/20)
Length of Visible Light 14h 03m
Length of Day
13h 12m
Waning Gibbous, 77% of the Moon is Illuminated
Aug 20
Waning Gibbous
Aug 23
Last Quarter
Aug 30
New
Sep 5
First Quarter
Sep 13
Full

Hourly Weather History & Observations

Time (PDT) Temp. Heat Index Dew Point Humidity Pressure Visibility Wind Dir Wind Speed Gust Speed Precip Events Conditions
12:52 AM 57.9 °F - 45.0 °F 62% 29.87 in - NE 5.8 mph - N/A   Unknown
1:52 AM 55.9 °F - 42.1 °F 60% 29.87 in - NE 6.9 mph - N/A   Unknown
2:52 AM 55.9 °F - 39.9 °F 55% 29.87 in - NE 5.8 mph - N/A   Unknown
3:52 AM 55.9 °F - 37.0 °F 49% 29.87 in - NNE 4.6 mph - N/A   Unknown
4:52 AM 53.1 °F - 35.1 °F 50% 29.87 in - NE 6.9 mph - N/A   Unknown
5:52 AM 53.1 °F - 36.0 °F 52% 29.89 in - NE 6.9 mph - N/A   Unknown
6:52 AM 54.0 °F - 33.1 °F 45% 29.90 in - ENE 6.9 mph - N/A   Unknown
7:52 AM 66.9 °F - 39.0 °F 36% 29.89 in - Calm Calm - N/A   Unknown
8:52 AM 77.0 °F - 39.9 °F 26% 29.89 in - Calm Calm - N/A   Unknown
9:52 AM 87.1 °F - 30.9 °F 13% 29.88 in - SW 6.9 mph - N/A   Unknown
10:52 AM 91.9 °F - 32.0 °F 12% 29.87 in - SSW 10.4 mph - N/A   Unknown
11:52 AM 93.9 °F - 30.0 °F 10% 29.86 in - South 9.2 mph 21.9 mph N/A   Unknown
12:52 PM 97.0 °F - 37.9 °F 13% 29.84 in - SE 8.1 mph - N/A   Unknown
1:52 PM 97.0 °F - 37.0 °F 12% 29.83 in - West 13.8 mph 19.6 mph N/A   Unknown
2:52 PM 97.0 °F - 42.1 °F 15% 29.82 in - West 11.5 mph - N/A   Unknown
3:52 PM 96.1 °F - 48.0 °F 19% 29.81 in - West 12.7 mph 21.9 mph N/A   Unknown
4:52 PM 93.9 °F - 48.9 °F 21% 29.81 in - WSW 12.7 mph 17.3 mph N/A   Unknown
5:52 PM 91.0 °F - 51.1 °F 25% 29.82 in - SW 12.7 mph - N/A   Unknown
6:52 PM 84.9 °F 83.2 °F 53.1 °F 33% 29.83 in - SW 9.2 mph - N/A   Unknown
7:52 PM 77.0 °F - 55.0 °F 47% 29.83 in - Calm Calm - N/A   Unknown
8:52 PM 69.1 °F - 52.0 °F 54% 29.83 in - NE 3.5 mph - N/A   Unknown
9:52 PM 68.0 °F - 50.0 °F 52% 29.84 in - North 3.5 mph - N/A   Unknown
10:52 PM 64.0 °F - 50.0 °F 60% 29.84 in - NNE 3.5 mph - N/A   Unknown
11:52 PM 61.0 °F - 48.0 °F 62% 29.84 in - NE 6.9 mph - N/A   Unknown